Regional Weather Roundup
Issued by NWS Wakefield, VA

Home | Current Version | Previous Version | Graphics & Text | Print | Product List | Glossary On
Versions: 1 2 3 4 5 6 7 8 9 10 11 12 13 14 15 16 17 18 19 20 21 22 23 24 25 26 27 28 29 30 31 32 33 34 35 36 37 38 39 40 41 42 43 44 45 46 47 48 49 50
000
ASUS41 KAKQ 300510
RWRAKQ

REGIONAL WEATHER ROUNDUP
NATIONAL WEATHER SERVICE WAKEFIELD VA
1200 AM EST FRI JAN 30 2015

Note: "fair" indicates few or no clouds below 12,000 feet with no
significant weather and/or obstructions to visibility. * = Denotes
station may not report precipitation (e.g., rain,snow,etc.),
thunder or fog.

VAZ042-051-052>054-056-300600-
NORTHERN VIRGINIA

CITY           SKY/WX    TMP DP  RH WIND       PRES   REMARKS
WASH NATIONAL  CLOUDY    39  23  52 S7        29.92F
DULLES         CLOUDY    36  22  56 SW5       29.91F
FORT BELVOIR   CLOUDY    39  23  51 VRB3      29.93F
QUANTICO       CLOUDY    39  27  62 SW10      29.94F
FREDERICKSBRG* CLOUDY    43  24  46 SW6       29.94S
STAFFORD*      CLOUDY    41  20  43 CALM      29.97F
WARRENTON      CLOUDY    40  29  64 SW6       29.90F
CULPEPER*      MOCLDY    39  25  56 S6        29.91F
MANASSAS*      CLOUDY    37  27  65 CALM      29.92F
LEESBURG*      CLOUDY    34  30  86 W3        29.92S
WINCHESTER     CLOUDY    39  27  60 W6        29.90R
FRONT ROYAL*   CLOUDY    41  28  60 CALM      29.89R
LURAY*         CLOUDY    43  32  65 SW12      29.89S
$$

VAZ048-049-060>072-079>083-300600-
CENTRAL AND SOUTH CENTRAL VIRGINIA

CITY           SKY/WX    TMP DP  RH WIND       PRES   REMARKS
RICHMOND       CLOUDY    41  21  44 S10       29.98F
CHESTERFIELD*  CLOUDY    37  16  41 S6        29.98F
PETERSBURG*    CLOUDY    39  21  49 S6        29.99F
HANOVER        CLOUDY    40  21  46 S10       29.97F
TAPPAHANNOCK*  CLOUDY    41  14  33 S13G20    29.97F
QUINTON*       CLOUDY    39  20  46 S6        29.99F
CHARLOTTSVILLE PTCLDY    36  24  62 S10       29.91F
GORDONSVILLE*  FAIR      35  24  64 SW3       29.92F
ORANGE*        MOCLDY    37  25  60 SE5       29.93F
LOUISA*        CLOUDY    39  23  52 S3        29.92F
BUMPASS*       MOCLDY    39  22  50 SW6       29.94F
FARMVILLE*     CLOUDY    43  26  51 SW6       29.94F
CREWE*         CLOUDY    41  23  48 SW7       29.95F
FORT PICKETT*  CLOUDY    40  24  54 S10G18    29.97F
CHASE CITY*    CLOUDY    40  28  61 SE3       29.97F
CLARKSVILLE*   CLOUDY    39  27  60 S7        29.98F
SOUTH HILL*    CLOUDY    37  24  59 S8        30.05F
LAWRENCEVILLE* CLOUDY    38  24  57 S5        30.00F
EMPORIA*       MOCLDY    34  21  60 SE3       30.03F
$$

VAZ088>098-300600-
SOUTHEAST VIRGINIA

CITY           SKY/WX    TMP DP  RH WIND       PRES   REMARKS
NORFOLK        CLOUDY    42  22  44 S17G25    30.01F
VIRGINIA BEACH CLOUDY    42  25  50 S13       30.02F
NORFOLK NAVAL  CLOUDY    45  23  42 S8        30.03F
WEST POINT*    CLOUDY    42  20  42 SE6       30.01F
SALUDA*        CLOUDY    39  21  49 S7        29.99F
NEWPORT NEWS   PTCLDY    42  24  49 SW8       30.02F
LANGLEY AFB    PTCLDY    40  24  53 SW12      30.01F
FORT EUSTIS    CLOUDY    40  27  59 VRB7      30.00F
WILLIAMSBURG*    N/A     43  27  52 S7        30.02F
HR EXEC AP*    CLOUDY    41  25  52 S12G17    30.04F
FRANKLIN*      PTCLDY    37  22  56 S9        30.03F
WAKEFIELD      MOCLDY    39  20  46 S6        30.01F
$$

VAZ020-022-025-037-045-300600-
WEST CENTRAL AND SOUTHWEST VIRGINIA

CITY           SKY/WX    TMP DP  RH WIND       PRES   REMARKS
STAUNTON*      CLOUDY    41  28  57 S7        29.91F
WAYNESBORO*    CLOUDY    42  28  57 SW7       29.89F
HOT SPRINGS VA CLOUDY    33  33 100 W20G28    29.82F FOG     WCI  21
LYNCHBURG      CLOUDY    40  25  55 SW6       29.95F
DANVILLE       PTCLDY    41  26  55 SW10      29.99F
SOUTH BOSTON*  CLOUDY    44  25  47 SW9       29.98F
MARTINSVILLE   CLOUDY    42  25  51 SW3       30.00F
ROANOKE        CLOUDY    43  28  55 W3        29.97R
BLACKSBURG     CLOUDY    40  33  76 W14G23    29.97S
DUBLIN*        DRIZZLE   43  37  81 W17G23    29.98R
MARION*        CLOUDY    40  33  77 W17G32    30.00R
HILLSVILLE*    CLOUDY    41  32  70 W14G20    29.94S
RICHLANDS*     RAIN      34  32  93 NW12G18   30.04R
WISE*          MIX PCPN  34  34 100 NW14G21   30.08R WCI  24
ABINGDON*      DRIZZLE   40  36  85 NW9G17    30.05R
$$

MDZ021>025-VAZ099-100-300600-
SOUTHERN MARYLAND AND THE DELMARVA PENINSULA

CITY           SKY/WX    TMP DP  RH WIND       PRES   REMARKS
PATUXENT RIVER CLOUDY    40  19  43 SW15G24   29.93F
BAY BRIDGE APT   N/A     36  27  69 S8        29.92F
LEONARDTOWN    CLOUDY    39  19  45 S12       29.95F
DOVER          NOT AVBL
GEORGETOWN     CLOUDY    38  22  52 S12       29.97F
EASTON         CLOUDY    39  28  65 SW12      29.97F
CAMBRIDGE      CLOUDY    37  28  70 S12       29.95F
SALISBURY      CLOUDY    41  22  46 S14       29.97F
OCEAN CITY     CLOUDY    39  29  67 SW15G22   30.00F
WALLOPS ISLAND CLOUDY    38  31  76 SW14      30.01F
ACCOMACK*      CLOUDY    37  27  65 S9        30.00F
$$

NCZ012>017-030>032-300600-
NORTH CENTRAL AND EASTERN NORTH CAROLINA

CITY           SKY/WX    TMP DP  RH WIND       PRES   REMARKS
ROANOKE RAPIDS FAIR      37  25  60 S8        30.01F
RALEIGH        FAIR      40  24  53 SW9       30.02F
ELIZABETH CITY CLOUDY    41  30  65 S9        30.07F
AHOSKIE*       PTCLDY    35  25  65 S7        30.04F
EDENTON*       MOCLDY    41  31  68 S7        30.08F
CURRITUCK*     CLOUDY    42  27  56 S5        30.07F
KILL DEVIL HLS CLOUDY    41  32  69 SW3       30.07F
MANTEO         CLOUDY    43  34  70 S6        30.08F
CAPE HATTERAS  LGT RAIN  50  43  77 W12       30.10F
TARBORO*       FAIR      39  28  63 S6        30.06F
GOLDSBORO      FAIR      42  40  91 CALM      30.06F
WASHINGTON     CLOUDY    42  31  66 CALM      30.09F
GREENVILLE     CLEAR     37  30  75 S5        30.09F
NEW BERN       LGT RAIN  47  38  71 S3        30.10F
WILMINGTON     LGT RAIN  47  42  83 W6        30.11F
$$

VAZ048-300600-
ELSEWHERE

CITY           SKY/WX    TMP DP  RH WIND       PRES   REMARKS
HARRISBURG PA  CLOUDY    29  25  85 E3        29.92F
BALTIMORE      CLOUDY    33  25  72 CALM      29.92F
ANNAPOLIS      CLOUDY    37  23  56 CALM      29.93F
ANDREWS AFB    NOT AVBL
PHILADELPHIA   CLOUDY    34  21  59 SE3       29.97F
HENDERSON NC   CLOUDY    38  23  53 S13       30.00F
GREENSBORO     CLOUDY    43  25  49 SW10      29.98F
ROCKY MOUNT    CLEAR     38  25  59 S7        30.05F
$$

VAZ100-300600-
MARINE

STATION/POSITION TIME  TEMP    WIND        PRES    WAVE   SWELL
                       AIR SEA DIR/SP/G            HT/PER HT/PER
                 (UTC) (F)     (DEG/KT/KT) (MB)    (FT/S) (FT/S)
BRANDYWINE LGT   0500   36 36  180/ 14/ 16 1014.9F
CAPE MAY NJ      0500   37 36              1014.9F
LEWES DE         0500   38 36  190/  5/  9 1015.0S
15NM E FENWICK I 0500   40 40              1015.5F   4/ 4
OCEAN-CITY-INLET 0500   39 35  210/ 15/ 20 1015.4S
WACHAPREAGUE VA  0500   38 36  200/  9/ 13 1016.5F
THOMAS POINT MD  0500   38 36  190/ 15/ 16 1014.4F
GOOSES REEF MD   0500   39     VRB 14/ 16  1012.8F
COVE POINT MD    0500   39     210/ 17/ 19 1014.2F
SOLOMONS ISLAND  0500      37                N/A
BISHOPS HEAD MD  0500   38 35  180/ 16/ 18 1014.3F
PINEY POINT MD   0500          210/ 11/ 14   N/A
POTOMAC MD       0500   40     210/  8/ 12 1014.2F
CAMBRIDGE MD     0500   38 35  180/  8/ 14 1014.1F
LEWISETTA VA     0500   41 36  220/ 15/ 19 1014.3F
RAPPAHANNOCK LGT 0500          180/ 16/ 18 1016.4F
STINGRAY PT      0500   39     210/ 10/ 14 1016.5F
YORK RVR RNG VA  0500   41     210/ 15/ 17 1015.5F
YORKTOWN VA      0500   41 39  210/ 13/ 18 1015.7F
JAMESTOWN VA     0500   38     200/  6/  8   N/A
DOMINION TERM VA 0500   41     200/ 14/ 19 1016.5F
KIPTOPEKE VA     0500      44  200/ 12/ 16   N/A
CHES BAY BRIDGE  0500   41 40  180/ 13/ 17 1016.3F
CAPE HENRY VA    0500   40     190/  9/ 16 1015.6F
CHESAPEAKE LGHT  0400   41     200/ 21/ 23 1018.4F
WILLOUBY STN VA  0500   41     200/ 13/ 15 1017.0R
S CRANEY ISL VA  0500          200/ 12/ 16 1016.3F
CAPE HENRY BUOY  0500      42                N/A     4/ 4   2/11
1ST LANDING BUOY 0500   41     210/ 14/ 17 1016.6F
CAPE CHARLES BUO 0500      41                N/A     3/11   2/11
OFFSHORE WE BUOY 0500      43                N/A     4/ 4   2/12
64NM E OF VA BCH 0500   46 49  220/ 17/ 21 1018.1F   4/ 5   2/11
DUCK PIER NC     0500   42 43  200/  7/  9 1017.7F
44100 DUCK FRF   0500      44                N/A     3/12   2/12
44056 DUCK FRF   0500      42                N/A     3/11   2/11
OREGON INLET NC  0500   42 41  200/  3/  4 1019.0F
HATTERAS NC      0500   51 44  230/  9/ 13 1019.4S



USA.gov is the U.S. government's official web portal to all federal, state and local government web resources and services.